DW7680 Weather Reports


time (UTC)temp
F
wind
direction
speed
knots
gust
knots
rain 1hr
in
rain 24hr
in
rain mn
in
humidity
%
barometer
mb
20260831210058 82 65 7.0 14.8 0.00 0.00 0.00 30 1009.3
20260831204602 82 102 2.6 12.2 0.00 0.00 0.00 31 1009.6
20260831203133 81 82 8.7 14.8 0.00 0.00 0.00 33 1009.9
20260831201559 81 123 6.1 16.5 0.00 0.00 0.00 31 1009.9
20260831200100 82 99 7.8 15.6 0.00 0.00 0.00 30 1010.1
20260831200000 82 163 8.7 15.6 0.00 0.00 0.00 30 1010.1
20260831194605 82 77 8.7 19.1 0.00 0.00 0.00 29 1010.2
20260831193059 84 70 6.1 13.0 0.00 0.00 0.00 29 1010.3
20260831191559 84 123 7.0 13.9 0.00 0.00 0.00 26 1010.5
20260831190135 82 105 7.8 14.8 0.00 0.00 0.00 26 1010.5
20260831184558 83 204 2.6 12.2 0.00 0.00 0.00 25 1010.8
20260831183058 82 100 6.1 13.9 0.00 0.00 0.00 24 1010.9
20260831181604 82 48 4.3 11.3 0.00 0.00 0.00 23 1010.9
20260831180059 82 39 4.3 9.6 0.00 0.00 0.00 25 1011.1
20260831174600 82 67 7.0 13.9 0.00 0.00 0.00 29 1011.1
20260831173101 82 59 4.3 13.0 0.00 0.00 0.00 30 1011.2
20260831171606 81 53 1.7 11.3 0.00 0.00 0.00 29 1011.1
20260831170057 80 161 7.0 15.6 0.00 0.00 0.00 31 1011.2
20260831164603 80 111 2.6 10.4 0.00 0.00 0.00 32 1011.2
20260831163059 79 104 1.7 7.8 0.00 0.00 0.00 34 1011.1
20260831161603 79 113 3.5 8.7 0.00 0.00 0.00 37 1011.0
20260831160126 79 164 1.7 6.1 0.00 0.00 0.00 39 1011.0
20260831154606 77 116 0.9 2.6 0.00 0.00 0.00 42 1010.9
20260831153129 74 277 0.0 2.6 0.00 0.00 0.00 47 1011.0
20260831151559 72 249 1.7 3.5 0.00 0.00 0.00 50 1011.0
20260831150059 70 263 2.6 6.1 0.00 0.00 0.00 54 1011.0
20260831144606 68 274 2.6 5.2 0.00 0.00 0.00 59 1011.1
20260831143101 65 279 2.6 5.2 0.00 0.00 0.00 64 1011.2
20260831141558 61 263 1.7 5.2 0.00 0.00 0.00 70 1011.4
20260831140059 58 259 1.7 4.3 0.00 0.00 0.00 74 1011.4
20260831134605 57 306 1.7 6.1 0.00 0.00 0.00 74 1011.2
20260831133058 57 273 3.5 6.1 0.00 0.00 0.00 73 1011.3
20260831131603 58 238 2.6 3.5 0.00 0.00 0.00 71 1011.1
20260831130112 57 279 2.6 7.0 0.00 0.00 0.00 73 1010.9
20260831124602 57 279 2.6 5.2 0.00 0.00 0.00 72 1010.9
20260831123058 57 293 0.9 4.3 0.00 0.00 0.00 73 1010.5
20260831121558 56 327 2.6 8.7 0.00 0.00 0.00 74 1010.6
20260831120144 56 273 2.6 5.2 0.00 0.00 0.00 73 1010.6
20260831114559 56 304 2.6 7.0 0.00 0.00 0.00 73 1010.7
20260831113059 56 305 1.7 4.3 0.00 0.00 0.00 72 1010.7
20260831111602 56 271 1.7 8.7 0.00 0.00 0.00 71 1010.8
20260831110058 55 258 4.3 6.1 0.00 0.00 0.00 72 1011.1
20260831104559 55 257 2.6 6.1 0.00 0.00 0.00 72 1010.9
20260831103058 55 267 4.3 8.7 0.00 0.00 0.00 72 1010.7
20260831101611 55 271 3.5 7.0 0.00 0.00 0.00 73 1010.7
20260831100058 55 282 3.5 7.8 0.00 0.00 0.00 72 1010.9
20260831094608 55 301 2.6 7.0 0.00 0.00 0.00 72 1010.7
20260831093059 55 252 2.6 8.7 0.00 0.00 0.00 72 1010.9
20260831091604 55 280 2.6 5.2 0.00 0.00 0.00 72 1010.8
20260831090106 55 289 1.7 7.0 0.00 0.00 0.00 72 1010.9
20260831084559 55 260 2.6 7.0 0.00 0.00 0.00 72 1010.8
20260831083059 56 274 2.6 5.2 0.00 0.00 0.00 70 1010.8
20260831081601 56 254 2.6 7.0 0.00 0.00 0.00 70 1010.8
20260831080057 56 292 2.6 6.1 0.00 0.00 0.00 71 1010.8
20260831074557 57 250 1.7 6.1 0.00 0.00 0.00 70 1010.9
20260831073104 57 263 4.3 7.8 0.00 0.00 0.00 69 1010.9
20260831071605 57 256 3.5 8.7 0.00 0.00 0.00 69 1011.0
20260831070124 58 279 4.3 8.7 0.00 0.00 0.00 69 1010.9
20260831070002 58 279 4.3 8.7 0.00 0.00 0.00 69 1010.9
20260831064601 58 319 3.5 9.6 0.00 0.00 0.00 69 1011.0
20260831063102 58 295 2.6 5.2 0.00 0.00 0.00 70 1011.1
20260831061609 58 290 5.2 10.4 0.00 0.00 0.00 69 1011.3
20260831060109 59 289 2.6 7.0 0.00 0.00 0.00 68 1011.2
20260831060002 59 285 2.6 8.7 0.00 0.00 0.00 68 1011.2
20260831054604 59 270 2.6 6.1 0.00 0.00 0.00 69 1011.3
20260831053101 59 239 3.5 7.8 0.00 0.00 0.00 68 1011.4
20260831051620 59 267 3.5 7.0 0.00 0.00 0.00 70 1011.3
20260831050059 59 267 3.5 6.1 0.00 0.00 0.00 69 1011.4
20260831044601 60 298 2.6 5.2 0.00 0.00 0.00 69 1011.4
20260831043059 60 281 2.6 6.1 0.00 0.00 0.00 68 1011.5
20260831041559 62 290 1.7 5.2 0.00 0.00 0.00 64 1011.4
20260831040059 62 292 2.6 4.3 0.00 0.00 0.00 64 1011.3
20260831034558 63 278 2.6 7.0 0.00 0.00 0.00 65 1011.1
20260831033103 65 303 1.7 4.3 0.00 0.00 0.00 59 1010.9
20260831031559 66 277 1.7 3.5 0.00 0.00 0.00 57 1010.8
20260831030059 68 291 1.7 4.3 0.00 0.00 0.00 55 1010.6
20260831030001 68 291 1.7 4.3 0.00 0.00 0.00 55 1010.6
20260831024616 69 289 1.7 2.6 0.00 0.01 0.00 53 1010.3
20260831024501 69 289 0.9 2.6 0.00 0.01 0.00 53 1010.2
20260831023100 71 289 1.7 4.3 0.00 0.01 0.00 50 1010.1
20260831023000 71 304 1.7 4.3 0.00 0.01 0.00 50 1010.0
20260831021604 74 132 0.0 2.6 0.00 0.01 0.00 41 1009.9
20260831020100 75 132 0.0 2.6 0.00 0.01 0.00 40 1009.6
20260831014559 76 132 0.9 3.5 0.00 0.03 0.00 39 1009.4
20260831013102 76 132 0.0 1.7 0.00 0.03 0.00 38 1009.3
20260831011600 77 132 0.9 2.6 0.00 0.03 0.00 37 1009.3
20260831010130 78 114 0.9 3.5 0.00 0.03 0.00 36 1009.4
20260831004559 79 104 1.7 5.2 0.00 0.03 0.00 36 1009.2
20260831003059 79 98 0.0 3.5 0.00 0.03 0.00 35 1009.3
20260831001607 80 116 2.6 7.0 0.00 0.03 0.00 35 1009.4
20260831000059 80 72 1.7 7.0 0.00 0.03 0.00 35 1009.5
20260830234559 80 115 2.6 9.6 0.00 0.03 0.00 34 1009.7
20260830233059 80 91 5.2 9.6 0.00 0.03 0.00 34 1009.6
20260830231559 80 88 5.2 12.2 0.00 0.03 0.00 35 1009.7
20260830230058 81 209 2.6 9.6 0.00 0.03 0.00 33 1009.7
20260830230001 81 204 2.6 9.6 0.00 0.03 0.00 33 1009.7
20260830224607 82 200 1.7 9.6 0.00 0.12 0.00 32 1009.8
20260830223103 82 80 1.7 6.1 0.00 0.12 0.00 32 1009.8
20260830221601 82 132 3.5 7.8 0.00 0.12 0.00 33 1010.1
20260830220121 82 129 3.5 8.7 0.00 0.12 0.00 33 1010.5
20260830214603 81 199 1.7 4.3 0.00 0.12 0.00 33 1010.6
20260830213058 80 355 1.7 2.6 0.00 0.12 0.00 33 1010.7
20260830211603 79 71 0.0 7.8 0.00 0.12 0.00 36 1011.1